GAOFEN 10R

导读 | 星芒AI

GAOFEN 10R 是中国高分辨率对地观测系统的重要组成部分,主要用于国土监测、资源调查和环境评估等领域。该卫星具备高分辨率、多光谱成像能力,能够提供高质量的遥感数据。其先进传感器和稳定平台设计,提升了图像精度与应用价值。GAOFEN 10R 在农业、城市规划、防灾减灾等方面发挥重要作用,增强了中国自主遥感数据获取能力,推动了相关行业的数字化发展。

基本信息
目录编号:
44622
目录名称:
GAOFEN 10R
国际标识:
2019-066A
轨道中心:
EARTH
卫星名称:
GAOFEN 10R
卫星全名:
--
卫星状态:
在轨 (已飞行2217 天)
发射日期:
2019-10-04 UTC
国别 :
中国 (CN)
星等 :
--
轨道信息
数据来源 国际轨道数据
星历时间: 2025-10-28T23:33:13+0800
15小时前
查看轨道信息
半长轴: 6998.688km
偏心率: 0.0007604
轨道倾角: 98.020°
近地点辐角 160.913°
升交点赤经 248.997°
平近点角 199.237°
近地点: 615.231km
远地点: 625.875km
周期: 97.115分钟
每日圈数: 14.827839
详细信息
使用方式:
暂无
2D轨道图
3D轨道图
轨道高度分析图
轨道倾角分析图
轨道综合分析图
查看轨道综合分析图